Regional Weather Roundup
Issued by NWS

Home | Current Version | Previous Version | Graphics & Text | Print | Product List | Glossary On
Versions: 1 2 3 4 5 6 7 8 9 10 11 12 13 14 15 16 17 18 19 20 21 22 23 24 25 26 27 28 29 30 31 32 33 34 35 36 37 38 39 40 41 42 43 44 45 46 47 48 49 50
000
ASUS44 KMEG 291610
RWRTN
TENNESSEE HOURLY STATE WEATHER ROUNDUP
NATIONAL WEATHER SERVICE MEMPHIS TN
1100 AM CDT WED MAR 29 2017

TNZ002-004-019-021-049-052-054-088>092-291700-
WEST TENNESSEE

CITY           SKY/WX    TMP DP  RH WIND       PRES   REMARKS
MEMPHIS INTL   CLOUDY    75  64  68 S10G22    29.99S
NWS MEMPHIS      N/A     74 N/A N/A MISG        N/A
JACKSON        MOSUNNY   72  60  66 S8        30.01F
DYERSBURG      SUNNY     70  59  68 SE12      29.99F
SOMERVILLE     SUNNY     73  63  68 S13       29.99S
BOLIVAR        MOSUNNY   73  61  64 S8        30.01R
PARIS          MOSUNNY   61  54  77 E14       30.04F
HUNTINGDON     MOSUNNY   66  57  72 E9        30.02F
SAVANNAH       MOSUNNY   72  59  64 VRB6      30.02F
$$

TNZ008-025-027-028-033-062-065-066-291700-
NORTH MIDDLE TENNESSEE

CITY           SKY/WX    TMP DP  RH WIND       PRES   REMARKS
NASHVILLE      PTSUNNY   70  53  54 S7        30.07R
PORTLAND       SUNNY     66  55  68 CALM      30.07S
CLARKSVILLE    PTSUNNY   64  55  72 E3        30.09R
SMYRNA         MOSUNNY   69  55  60 SE5       30.07S
COOKEVILLE     SUNNY     68  54  60 VRB3      30.06R
GALLATIN       SUNNY     66  55  68 SE6       30.10R
CROSSVILLE     SUNNY     64  52  64 SE7       30.09S
$$

TNZ061-075-076-078-094-096-097-291700-
SOUTH MIDDLE TENNESSEE

CITY           SKY/WX    TMP DP  RH WIND       PRES   REMARKS
FAYETTEVILLE   SUNNY     72  55  56 SE7       30.06R
TULLAHOMA      MOSUNNY   70  50  49 E5        30.07R
WINCHESTER     PTSUNNY   72  55  56 E5        30.06R
MCMINNVILLE    SUNNY     70  55  60 VRB3      30.06S
COLUMBIA       SUNNY     70  61  73 E5        30.05R
SHELBYVILLE    PTSUNNY   72  57  60 VRB3      30.07R
$$

TNZ017-018-042-046-047-291700-
NORTHEAST TENNESSEE

CITY           SKY/WX    TMP DP  RH WIND       PRES   REMARKS
TRI CITIES     MOSUNNY   68  51  54 CALM      30.10F
ELIZABETHTON   SUNNY     66  52  59 CALM      30.09F
$$

TNZ012-013-036-069-073-074-291700-
CENTRAL EAST TENNESSEE

CITY           SKY/WX    TMP DP  RH WIND       PRES   REMARKS
KNOXVILLE      MOSUNNY   68  53  58 N6        30.07F
OAK RIDGE      SUNNY     69  51  52 E6        30.09S
DOWNTOWN KNOXV SUNNY     70  55  60 SE7       30.08S
GATLINBURG     SUNNY     64  52  63 CALM      30.07F
MORRISTOWN     SUNNY     66  54  63 S7        30.08F
JACKSBORO      MOSUNNY   66  54  63 CALM      30.12S
$$

TNZ083-085-099-291700-
SOUTHEAST TENNESSEE

CITY           SKY/WX    TMP DP  RH WIND       PRES   REMARKS
CHATTANOOGA    PTSUNNY   69  53  56 CALM      30.07F
$$

SKY/WX REPORTED AS FAIR MEANS FEW OR NO CLOUDS BELOW
12 THOUSAND FEET.




USA.gov is the U.S. government's official web portal to all federal, state and local government web resources and services.